Weather Roundup
Issued by NWS Chicago, IL

Home | Current Version | Previous Version | Graphics & Text | Print | Product List | Glossary On
Versions: 1 2 3 4 5 6 7 8 9 10 11 12 13 14 15 16 17 18 19 20 21 22 23 24 25 26 27 28 29 30 31 32 33 34 35 36 37 38 39 40 41 42 43 44 45 46 47 48 49 50
000
NZUS59 KLOT 261110
HRRLOT

CHICAGO AREA WEATHER ROUNDUP
NATIONAL WEATHER SERVICE CHICAGO/ROMEOVILLE IL
600 AM CDT SAT JUL 26 2014

NOTE: "FAIR" INDICATES FEW OR NO CLOUDS BELOW 12,000 FEET WITH NO
SIGNIFICANT WEATHER AND/OR OBSTRUCTIONS TO VISIBILITY.

* THESE STATIONS ARE NOT UNDER NWS QUALITY CONTROL. THEY ALSO MAY NOT
  REPORT WEATHER SUCH AS PRECIPITATION OR FOG.

ILZ005-006-012>014-019>023-261200-
NORTHEAST ILLINOIS

CITY           SKY/WX    TMP DP  RH WIND       PRES   REMARKS
OHARE          CLOUDY    69  58  67 SW3       29.85S
MIDWAY         CLOUDY    71  61  70 S8        29.85F
AURORA         CLOUDY    68  61  78 S5        29.86R
LANSING*       CLOUDY    66  59  78 S5        29.87S
JOLIET*        CLOUDY    67  61  79 S3        29.86S
WAUKEGAN       MOCLDY    63  58  83 SW3       29.85S
DUPAGE AIRPORT CLOUDY    67  62  84 S6        29.84F
WHEELING       CLOUDY    69  60  73 CALM      29.86F
KANKAKEE*      RAIN      67  63  86 S7        29.87S
MORRIS*        MOCLDY    68  63  82 SE5       29.84F
LEWIS AIRPORT* CLOUDY    68  61  78 S8        29.85F
NORTHERLY IS     N/A     69  59  70 S6          N/A
$$

WIZ051-052-058>065-066-070>072-261200-
SOUTHEAST WISCONSIN

CITY           SKY/WX    TMP DP  RH WIND       PRES   REMARKS
MILWAUKEE      MOCLDY    65  59  81 CALM      29.86S
KENOSHA*       CLOUDY    63  60  90 CALM      29.86R
RACINE*        CLOUDY    63  60  90 CALM      29.88R
BURLINGTON     CLOUDY    60  60  97 CALM      29.86R
WAUKESHA       CLOUDY    66  59  77 S5        29.86S
WEST BEND      CLEAR     59  55  88 CALM      29.85S
$$

INZ001>003-010>013-019-020-261200-
NORTHWEST INDIANA

CITY           SKY/WX    TMP DP  RH WIND       PRES   REMARKS
GARY*          MOCLDY    70  61  73 S5        29.87F
MICHIGAN CITY* NOT AVBL
RENSSELAER*    NOT AVBL
VALPARAISO     CLOUDY    64  60  87 S3        29.88F
$$

LMZ740>746-261200-
SOUTHERN LAKE MICHIGAN

STATION/POSITION TIME  SKY/WX   TEMP WIND        PRES    VSBY
                                AIR  DIR/SP/G
                 (UTC)          (F)  (DEG/KT/KT) (MB)    (MI)
HARRISON CRIB    1100            67  180/  8/  9   N/A
BURNHAM HARBOR   1100            69  190/  6/  9   N/A
CALUMET HARBOR   1100            69  200/  4/  5 1009.9F
BURNS HARBOR     1000            67  200/  8/ 11 1011.9S
MICHIGAN CITY    1100            66  150/  7/ 11   N/A
$$

ABBREVIATIONS USED IN REMARKS
   TC - TEMPERATURE IN CELSIUS
  WCI - WIND CHILL INDEX
   HX - HEAT INDEX
  VSB - VISIBILITY
$$


USA.gov is the U.S. government's official web portal to all federal, state and local government web resources and services.